This demonstration page uses our WeatherBlox Daily Observations layout. Learn more.

Left ArrowRight Arrow

Hourly Observations for February 18, 2021

Temp ( °F °C ) Dew Point ( °F °C ) Humidity (%) Winds ( mph kmh ) Pressure ( in mb ) Visibility ( mi km ) Precip ( " mm )
12:15 am 00:15 undefined 15 -9.7 10 -12.2 82 82 SW 3 6 30.44 1031 10 16 N/A
12:35 am 00:35 Partly Cloudy with Isolated Snow Showers 15 -9.5 10 -12.1 82 82 N N/A 30.45 1031 10 16 N/A
12:55 am 00:55 Partly Cloudy with Isolated Snow Showers 15 -9.5 10 -12 82 82 WSW 3 6 30.45 1031 10 16 N/A
1:15 am 01:15 Partly Cloudy with Isolated Snow Showers 15 -9.2 11 -11.7 82 82 N N/A 30.44 1031 10 16 N/A
1:35 am 01:35 Partly Cloudy with Isolated Snow Showers 16 -9.1 11 -11.5 83 83 W 5 7 30.45 1031 10 16 N/A
1:55 am 01:55 Partly Cloudy with Isolated Snow Showers 15 -9.2 11 -11.6 83 83 W 3 6 30.45 1031 7 11 N/A
2:15 am 02:15 Partly Cloudy with Isolated Snow Showers 15 -9.2 11 -11.5 84 84 W 7 11 30.45 1031 7 11 N/A
2:35 am 02:35 Partly Cloudy with Isolated Snow Showers 16 -9.1 12 -11.3 84 84 W 5 7 30.46 1031 10 16 N/A
2:55 am 02:55 Partly Cloudy with Isolated Snow Showers 16 -9 12 -11.1 85 85 WNW 5 7 30.46 1031 7 11 N/A
3:15 am 03:15 Partly Cloudy with Isolated Snow Showers 16 -8.8 13 -10.8 86 86 N N/A 30.45 1031 7 11 N/A
3:35 am 03:35 Partly Cloudy with Isolated Snow Showers 16 -8.8 13 -10.6 87 87 WNW 3 6 30.45 1031 5 8 N/A
3:55 am 03:55 Partly Cloudy with Isolated Snow Showers 17 -8.6 13 -10.3 88 88 N N/A 30.45 1031 7 11 N/A
4:15 am 04:15 Partly Cloudy with Isolated Snow Showers 17 -8.3 14 -10 88 88 N N/A 30.45 1031 7 11 N/A
4:35 am 04:35 Partly Cloudy with Isolated Snow Showers 17 -8.3 14 -10 88 88 N N/A 30.46 1031 7 11 N/A
4:55 am 04:55 undefined 17 -8.4 14 -10 88 88 N 3 6 30.47 1032 7 11 N/A
5:15 am 05:15 undefined 17 -8.3 14 -10 88 88 N N/A 30.47 1032 7 11 N/A
5:35 am 05:35 undefined 17 -8.2 14 -10 87 87 NNW 3 6 30.47 1032 10 16 N/A
5:55 am 05:55 undefined 17 -8.3 14 -10.2 86 86 N 6 9 30.48 1032 10 16 N/A
6:15 am 06:15 undefined 17 -8.1 13 -10.5 83 83 N 7 11 30.48 1032 10 16 N/A
6:35 am 06:35 undefined 17 -8.1 12 -11 80 80 N 8 13 30.48 1032 10 16 N/A
6:55 am 06:55 undefined 17 -8.2 12 -11.1 80 80 N 7 11 30.48 1032 10 16 N/A
7:15 am 07:15 undefined 17 -8.6 12 -11.3 81 81 NNW 6 9 30.49 1033 10 16 N/A
7:35 am 07:35 undefined 17 -8.6 11 -11.5 80 80 N 5 7 30.49 1033 10 16 N/A
7:55 am 07:55 undefined 16 -9.1 11 -11.8 81 81 NW 5 7 30.51 1033 10 16 N/A
8:15 am 08:15 undefined 16 -9 11 -11.9 80 80 N 5 7 30.52 1033 10 16 N/A
8:35 am 08:35 undefined 16 -9 10 -12 79 79 NNW 5 7 30.53 1034 10 16 N/A
8:55 am 08:55 undefined 16 -9 10 -12.2 78 78 NW 3 6 30.54 1034 10 16 N/A
9:15 am 09:15 undefined 16 -9 10 -12 79 79 N N/A 30.55 1034 10 16 N/A
9:35 am 09:35 undefined 17 -8.2 11 -11.6 77 77 N N/A 30.55 1034 10 16 N/A
9:55 am 09:55 undefined 18 -7.7 11 -11.5 74 74 NNW 3 6 30.54 1034 10 16 N/A
10:15 am 10:15 undefined 19 -7.4 12 -11.2 75 75 WNW 3 6 30.55 1035 10 16 N/A
10:35 am 10:35 undefined 20 -6.7 12 -11.1 71 71 WNW 3 6 30.54 1034 10 16 N/A
10:55 am 10:55 undefined 19 -7 12 -11 73 73 W 3 6 30.56 1035 10 16 N/A
11:15 am 11:15 undefined 20 -6.5 12 -11 71 71 N N/A 30.56 1035 10 16 N/A
11:35 am 11:35 undefined 21 -6 11 -11.4 66 66 N N/A 30.57 1035 10 16 N/A
11:55 am 11:55 undefined 22 -5.5 13 -10.7 67 67 N N/A 30.55 1035 10 16 N/A
12:15 pm 12:15 undefined 22 -5.7 12 -10.9 67 67 W 6 9 30.55 1035 10 16 N/A
12:35 pm 12:35 undefined 22 -5.3 13 -10.4 68 68 W 7 11 30.55 1034 10 16 N/A
12:55 pm 12:55 undefined 23 -5.1 14 -10.2 68 68 W 7 11 30.54 1034 10 16 N/A
1:15 pm 13:15 undefined 23 -5 13 -10.3 67 67 W 6 9 30.54 1034 10 16 N/A
1:35 pm 13:35 undefined 24 -4.7 14 -10.1 66 66 W 6 9 30.52 1034 10 16 N/A
1:55 pm 13:55 undefined 24 -4.2 13 -10.3 63 63 W 6 9 30.51 1033 10 16 N/A
2:15 pm 14:15 undefined 24 -4.5 14 -10.2 65 65 WNW 6 9 30.51 1033 10 16 N/A
2:35 pm 14:35 undefined 25 -4 15 -9.6 65 65 WNW 8 13 30.51 1033 10 16 N/A
2:55 pm 14:55 undefined 25 -4 15 -9.6 65 65 NW 7 11 30.50 1033 10 16 N/A
3:15 pm 15:15 undefined 25 -4 15 -9.5 66 66 WNW 9 15 30.50 1033 10 16 N/A
3:35 pm 15:35 undefined 25 -4 15 -9.5 66 66 NW 10 17 30.50 1033 10 16 N/A
3:55 pm 15:55 undefined 24 -4.2 15 -9.5 67 67 NW 7 11 30.50 1033 10 16 N/A
4:15 pm 16:15 undefined 24 -4.3 15 -9.5 67 67 NW 6 9 30.50 1033 10 16 N/A
4:35 pm 16:35 undefined 24 -4.5 15 -9.5 68 68 NW 5 7 30.49 1033 10 16 N/A
4:55 pm 16:55 undefined 24 -4.5 14 -10 66 66 WNW 3 6 30.49 1033 10 16 N/A
5:15 pm 17:15 undefined 23 -5 14 -10.2 67 67 N N/A 30.50 1033 10 16 N/A
5:35 pm 17:35 undefined 23 -5.2 13 -10.3 68 68 N N/A 30.50 1033 10 16 N/A
5:55 pm 17:55 undefined 22 -5.5 14 -10.2 70 70 W 5 7 30.50 1033 10 16 N/A
6:15 pm 18:15 undefined 20 -6.6 13 -10.6 74 74 WSW 6 9 30.51 1033 10 16 N/A
6:35 pm 18:35 undefined 19 -7.5 12 -11.1 76 76 WSW 7 11 30.52 1034 10 16 N/A
6:55 pm 18:55 undefined 19 -7.4 12 -11 76 76 WSW 3 6 30.52 1034 10 16 N/A
7:15 pm 19:15 undefined 17 -8.1 12 -11.1 79 79 SW 3 6 30.53 1034 10 16 N/A
7:35 pm 19:35 undefined 16 -8.8 11 -11.5 81 81 SW 5 7 30.53 1034 10 16 N/A
7:55 pm 19:55 undefined 16 -8.7 12 -11.3 82 82 SW 5 7 30.53 1034 10 16 N/A
8:15 pm 20:15 undefined 16 -9 11 -11.5 82 82 SW 5 7 30.54 1034 10 16 N/A
8:35 pm 20:35 undefined 15 -9.6 10 -12 83 83 SW 6 9 30.54 1034 10 16 N/A
8:55 pm 20:55 undefined 15 -9.5 11 -11.8 84 84 WSW 3 6 30.53 1034 10 16 N/A
9:15 pm 21:15 undefined 15 -9.5 11 -11.6 85 85 SSW 5 7 30.53 1034 10 16 N/A
9:35 pm 21:35 undefined 14 -10.1 10 -12.1 85 85 SW 3 6 30.54 1034 10 16 N/A
9:55 pm 21:55 undefined 13 -10.3 10 -12 88 88 SSW 5 7 30.54 1034 10 16 N/A
10:15 pm 22:15 undefined 12 -10.9 10 -12.4 89 89 SSW 3 6 30.55 1034 10 16 N/A
10:35 pm 22:35 undefined 12 -11.1 10 -12.4 90 90 SW 3 6 30.55 1034 10 16 N/A
10:55 pm 22:55 undefined 9 -12.9 6 -14.4 89 89 SSW 3 6 30.56 1035 10 16 N/A
11:15 pm 23:15 undefined 5 -15 2 -16.4 89 89 SSW 3 6 30.57 1035 10 16 N/A
11:35 pm 23:35 undefined 10 -12.1 8 -13.3 91 91 SSW 7 11 30.53 1034 10 16 N/A
11:55 pm 23:55 undefined 11 -11.7 9 -13 90 90 SW 6 9 30.52 1034 10 16 N/A

Powered by AerisWeather